Location: ????????
(55.5667°N, 37.5833°E)
Time: 21:04:16
(UTC+00:00)

Cosmos 1536 Rocket - Pass Details

Date: 14 April 2026
Orbit: 598 x 625 km, 82.5° (Epoch: 11 May)

Event Time Altitude Azimuth Distance (km) Brightness Sun altitude
Rises 21:16:22 0° 343° (NNW) 2,864 8.3 -24.7°
Reaches altitude 10° 21:18:40 10° 336° (NNW) 1,954 7.0 -24.7°
Enters shadow 21:22:25 39° 278° (W) 907 4.4 -24.8°
